Lacon, IL

7:37 PM CDT on May 24, 2018 (GMT -0500)
Lacon

Weather History for KC75 - November, 2013

Change the Weather History Date:

Sunday, November 17, 2013

  Actual Average (KVYS) Record (KVYS)
Temperature  
Mean Temperature 56 °F -  
Max Temperature 68 °F 48 °F 74 °F (2016)
Min Temperature 43 °F 31 °F 12 °F (2005)
Degree Days  
Heating Degree Days 10    
Growing Degree Days 6 (Base 50)    
Moisture  
Dew Point 51 °F    
Average Humidity 83    
Maximum Humidity 94    
Minimum Humidity 73    
Precipitation  
Precipitation 0.25 in - - ()
Sea Level Pressure  
Sea Level Pressure 29.55 in    
Wind  
Wind Speed 13 mph (SW)    
Max Wind Speed 20 mph    
Max Gust Speed 34 mph    
Visibility 10 miles    
Events Rain , Thunderstorm    
Averages and records for this station are not official NWS values.
T = Trace of Precipitation, MM = Missing Value Source: NWS Daily Summary

Daily Weather History Graph

Daily Weather History Graph

Search for Another Location

Airport or City:

Astronomy

Nov. 17, 2013 Rise Set
Actual Time 6:47 AM CST 4:36 PM CST
Civil Twilight 6:17 AM CST 5:06 PM CST
Nautical Twilight 5:44 AM CST 5:39 PM CST
Astronomical Twilight 5:11 AM CST 6:12 PM CST
Moon 4:53 PM CST (11/17) 6:41 AM CST (11/17)
Length of Visible Light 10h 48m
Length of Day
9h 49m
Full, 100% of the Moon is Illuminated
Nov 17
Full
Nov 25
Last Quarter
Dec 2
New
Dec 9
First Quarter
Dec 17
Full

Hourly Weather History & Observations

Time (CST) Temp. Windchill Dew Point Humidity Pressure Visibility Wind Dir Wind Speed Gust Speed Precip Events Conditions
12:15 AM 59.5 °F - 55.6 °F 87% 29.57 in 10.0 mi SSW 12.7 mph 18.4 mph N/A   Clear
12:35 AM 59.7 °F - 55.8 °F 87% 29.56 in 10.0 mi SSW 12.7 mph 19.6 mph N/A   Scattered Clouds
12:55 AM 60.1 °F - 55.9 °F 86% 29.54 in 10.0 mi South 13.8 mph 19.6 mph N/A   Scattered Clouds
1:15 AM 60.3 °F - 56.3 °F 87% 29.55 in 10.0 mi SSW 8.1 mph - N/A   Scattered Clouds
1:35 AM 58.5 °F - 56.8 °F 94% 29.54 in 2.5 mi South 9.2 mph - 0.15 in Rain Heavy Rain
1:55 AM 59.0 °F - 56.7 °F 92% 29.54 in 10.0 mi SSW 6.9 mph - 0.15 in Thunderstorm Overcast
2:15 AM 59.4 °F - 56.8 °F 91% 29.54 in 10.0 mi SSW 11.5 mph - N/A   Overcast
2:35 AM 59.4 °F - 57.2 °F 93% 29.53 in 10.0 mi SSW 9.2 mph - N/A   Overcast
2:55 AM 59.9 °F - 57.2 °F 91% 29.51 in 10.0 mi South 5.8 mph - N/A   Mostly Cloudy
3:15 AM 59.9 °F - 57.7 °F 93% 29.50 in 10.0 mi South 6.9 mph - N/A   Mostly Cloudy
3:35 AM 59.5 °F - 57.6 °F 93% 29.50 in 10.0 mi SSE 9.2 mph - N/A   Overcast
3:55 AM 59.5 °F - 57.6 °F 93% 29.49 in 10.0 mi South 9.2 mph - N/A   Overcast
4:15 AM 60.3 °F - 58.1 °F 93% 29.48 in 10.0 mi South 10.4 mph - N/A   Overcast
4:35 AM 60.6 °F - 58.3 °F 92% 29.47 in 7.0 mi South 11.5 mph - N/A   Overcast
4:55 AM 61.7 °F - 59.4 °F 92% 29.46 in 10.0 mi South 10.4 mph 16.1 mph N/A   Overcast
5:15 AM 62.8 °F - 60.3 °F 91% 29.45 in 10.0 mi South 12.7 mph 18.4 mph N/A   Overcast
5:35 AM 63.7 °F - 60.8 °F 90% 29.43 in 10.0 mi South 15.0 mph 24.2 mph N/A   Overcast
5:55 AM 64.2 °F - 61.0 °F 89% 29.42 in 10.0 mi South 16.1 mph 23.0 mph N/A   Overcast
6:15 AM 64.4 °F - 61.2 °F 89% 29.42 in 10.0 mi South 13.8 mph 21.9 mph N/A   Overcast
6:35 AM 64.8 °F - 61.0 °F 88% 29.41 in 10.0 mi South 16.1 mph 24.2 mph N/A   Overcast
6:55 AM 65.1 °F - 61.2 °F 87% 29.41 in 10.0 mi South 13.8 mph 20.7 mph N/A   Overcast
7:15 AM 65.5 °F - 61.2 °F 86% 29.41 in 10.0 mi SSW 12.7 mph 21.9 mph N/A   Overcast
7:35 AM 65.3 °F - 61.2 °F 86% 29.40 in 10.0 mi South 15.0 mph 24.2 mph N/A   Overcast
7:55 AM 65.8 °F - 61.3 °F 85% 29.39 in 10.0 mi SSW 15.0 mph 21.9 mph N/A   Overcast
8:15 AM 66.4 °F - 61.7 °F 85% 29.38 in 10.0 mi South 16.1 mph 28.8 mph N/A   Overcast
8:35 AM 67.1 °F - 61.9 °F 83% 29.37 in 10.0 mi South 17.3 mph 28.8 mph N/A   Overcast
8:55 AM 67.6 °F - 62.1 °F 82% 29.37 in 10.0 mi SSW 18.4 mph 26.5 mph N/A   Overcast
9:15 AM 68.4 °F - 62.1 °F 80% 29.37 in 10.0 mi SSW 19.6 mph 34.5 mph N/A   Mostly Cloudy
9:35 AM 68.7 °F - 62.4 °F 80% 29.35 in 10.0 mi SSW 18.4 mph 26.5 mph N/A   Mostly Cloudy
9:55 AM 68.9 °F - 62.4 °F 80% 29.33 in 10.0 mi SSW 17.3 mph 24.2 mph N/A   Overcast
10:15 AM 67.6 °F - 62.4 °F 83% 29.29 in 4.0 mi SW 8.1 mph 19.6 mph 0.05 in Rain , Thunderstorm Heavy Thunderstorms and Rain
10:35 AM 67.3 °F - 62.8 °F 85% 29.28 in 10.0 mi SSW 18.4 mph 28.8 mph 0.10 in Thunderstorm Overcast
10:55 AM 64.2 °F - 56.1 °F 75% 29.26 in 10.0 mi WSW 6.9 mph 21.9 mph 0.10 in Rain , Thunderstorm Light Thunderstorms and Rain
3:35 PM - - - N/A% 29.51 in - West 19.6 mph - N/A   Unknown
3:55 PM 50.0 °F - 41.9 °F 74% 29.53 in 10.0 mi West 19.6 mph 33.4 mph N/A   Mostly Cloudy
4:15 PM 49.1 °F - 41.0 °F 74% 29.56 in 10.0 mi West 19.6 mph 27.6 mph N/A   Scattered Clouds
4:35 PM 48.4 °F - 41.2 °F 76% 29.59 in 10.0 mi West 17.3 mph 25.3 mph N/A   Scattered Clouds
4:55 PM 48.6 °F - 41.0 °F 75% 29.60 in 10.0 mi West 13.8 mph 23.0 mph N/A   Mostly Cloudy
5:15 PM 48.2 °F - 41.5 °F 78% 29.62 in 10.0 mi West 15.0 mph 19.6 mph N/A   Scattered Clouds
5:35 PM 48.4 °F - 41.4 °F 77% 29.63 in 10.0 mi West 15.0 mph 21.9 mph N/A   Clear
5:55 PM 48.4 °F - 41.4 °F 77% 29.64 in 10.0 mi West 13.8 mph 20.7 mph N/A   Clear
6:15 PM 48.6 °F - 41.5 °F 77% 29.65 in 10.0 mi West 15.0 mph 20.7 mph N/A   Clear
6:35 PM 48.4 °F - 41.9 °F 78% 29.67 in 10.0 mi West 16.1 mph 24.2 mph N/A   Clear
6:55 PM 48.4 °F - 41.4 °F 77% 29.69 in 10.0 mi WNW 18.4 mph 27.6 mph N/A   Clear
7:15 PM 47.7 °F - 39.9 °F 75% 29.71 in 10.0 mi West 17.3 mph 29.9 mph N/A   Clear
7:35 PM 47.3 °F - 39.2 °F 73% 29.72 in 10.0 mi West 17.3 mph 26.5 mph N/A   Clear
7:55 PM 46.6 °F - 39.2 °F 75% 29.73 in 10.0 mi West 17.3 mph 24.2 mph N/A   Clear
8:15 PM 46.0 °F 39.3 °F 39.0 °F 76% 29.74 in 10.0 mi West 16.1 mph 21.9 mph N/A   Clear
8:55 PM 45.7 °F 39.1 °F 38.1 °F 75% 29.78 in 10.0 mi WNW 15.0 mph 26.5 mph N/A   Clear
9:35 PM 44.8 °F 39.9 °F 37.4 °F 75% 29.80 in 10.0 mi West 9.2 mph 18.4 mph N/A   Clear
9:55 PM 44.2 °F 39.2 °F 37.4 °F 77% 29.80 in 10.0 mi West 9.2 mph 17.3 mph N/A   Clear
10:15 PM 44.1 °F 39.0 °F 37.2 °F 77% 29.80 in 10.0 mi WNW 9.2 mph - N/A   Clear
10:35 PM 44.1 °F 40.1 °F 37.0 °F 76% 29.81 in 10.0 mi West 6.9 mph - N/A   Clear
10:55 PM 43.9 °F 39.3 °F 37.4 °F 78% 29.82 in 10.0 mi West 8.1 mph - N/A   Clear
11:15 PM 43.7 °F 39.1 °F 37.6 °F 79% 29.83 in 10.0 mi WSW 8.1 mph - N/A   Clear
11:35 PM 43.3 °F 37.7 °F 38.3 °F 82% 29.84 in 10.0 mi WSW 10.4 mph - N/A   Clear
11:55 PM 43.2 °F 37.0 °F 38.7 °F 84% 29.86 in 10.0 mi WSW 11.5 mph - N/A   Clear